Starlink 4573

operational
NORAD ID: 53623 Int'l Des: 2022-104 Owner: SPXS Country: US Constellation: starlink
LEOCIRCULAR

关于 Starlink 4573

正在加载描述...

实时位置

正在加载3D地球...

即将过境

高度历史

Altitude vs Time

uPlot chart will show altitude changes over time

两行轨道根数

1 53623U 22104AM 26062.57505864 -.00004049 00000-0 -23637-3 0 9997
2 53623 53.2169 261.4470 0001192 90.5678 269.5451 15.08849688194822
Epoch: Mar 3, 2026 • Age: 24 hours

当前状态

高度 545.4 km
速度 7.60 km/s
星下点 53.06°N, 176.48°W
发射日期 Aug 28, 2022
运行时间 3.5 years
类型 internet

技术详情

分类 Payload
质量 300.00 kg
干质量 290.00 kg
总质量 300.00 kg
长度 0.20 m
直径 2.80 m
跨度 9.00 m
形状 Box + pan
制造商 SPXS
平台类型 Starlink
阶段状态 In Orbit
所有者/国家 SPXS/US

大型星座

Loading constellations...